EW7961 Weather Reports


Display with metric or nautical units.
time (UTC)temp
F
wind
direction
speed
MPH
gust
MPH
rain 1hr
in
rain 24hr
in
rain mn
in
humidity
%
barometer
mb
20260509090017 58 250 4.0 5.0 0.00 0.36 0.36 97 1009.4
20260509085017 58 245 4.0 5.0 0.00 0.36 0.36 97 1009.5
20260509084017 58 245 4.0 5.0 0.00 0.36 0.36 97 1009.5
20260509083057 58 250 4.0 5.0 0.00 0.36 0.36 97 1009.6
20260509082021 58 246 4.0 5.0 0.00 0.36 0.36 97 1009.5
20260509081018 58 249 4.0 5.0 0.00 0.36 0.36 97 1009.4
20260509080101 58 264 4.0 5.0 0.00 0.36 0.36 96 1009.4
20260509075107 58 253 4.0 6.0 0.00 0.36 0.36 96 1009.4
20260509074022 58 256 5.0 5.0 0.00 0.36 0.36 96 1009.3
20260509073021 58 243 5.0 5.0 0.00 0.36 0.36 96 1009.4
20260509072101 58 258 5.0 5.0 0.00 0.36 0.36 96 1009.3
20260509071022 57 245 5.0 5.0 0.00 0.36 0.36 96 1009.2
20260509070018 57 253 4.0 5.0 0.00 0.36 0.36 96 1009.2
20260509065019 57 239 4.0 5.0 0.00 0.36 0.36 95 1009.1
20260509064019 58 237 4.0 4.0 0.00 0.36 0.36 95 1009.1
20260509063019 58 242 4.0 4.0 0.00 0.36 0.36 95 1009.1
20260509062019 58 242 4.0 5.0 0.00 0.36 0.36 95 1009.1
20260509061029 58 239 4.0 5.0 0.00 0.36 0.36 95 1009.2
20260509060019 58 273 4.0 4.0 0.00 0.36 0.36 95 1009.3
20260509055019 58 248 3.0 4.0 0.00 0.36 0.36 95 1009.4
20260509054020 58 250 3.0 4.0 0.00 0.36 0.36 95 1009.4
20260509053020 58 250 3.0 4.0 0.00 0.36 0.36 95 1009.5
20260509052020 58 258 3.0 4.0 0.00 0.36 0.36 95 1009.5
20260509051017 58 303 3.0 4.0 0.02 0.36 0.36 95 1009.5
20260509050017 59 247 3.0 5.0 0.03 0.36 0.36 95 1009.6
20260509045017 59 261 4.0 5.0 0.04 0.36 0.36 94 1009.7
20260509044020 59 266 4.0 6.0 0.08 0.36 0.36 94 1009.7
20260509043021 59 51 1.0 3.0 0.12 0.35 0.35 94 1009.8
20260509042018 59 38 2.0 4.0 0.16 0.35 0.35 94 1009.9
20260509041018 59 255 3.0 5.0 0.19 0.34 0.34 93 1010.2
20260509040018 59 263 3.0 5.0 0.21 0.33 0.33 93 1010.3
20260509035018 59 262 3.0 4.0 0.24 0.31 0.31 93 1010.5
20260509034018 60 341 3.0 5.0 0.24 0.28 0.28 92 1010.7
20260509033018 60 253 2.0 4.0 0.21 0.23 0.23 92 1010.9
20260509032019 60 291 3.0 4.0 0.18 0.19 0.19 91 1010.9
20260509031019 60 288 2.0 4.0 0.14 0.15 0.15 90 1010.8
20260509030019 61 291 2.0 4.0 0.10 0.11 0.11 89 1010.9
20260509025019 61 353 2.0 4.0 0.06 0.07 0.07 88 1010.8
20260509024019 61 347 2.0 3.0 0.03 0.04 0.04 87 1010.7
20260509023019 61 16 1.0 3.0 0.01 0.02 0.02 86 1010.6
20260509022059 61 338 1.0 2.0 0.00 0.01 0.01 85 1010.4
20260509021019 61 298 2.0 2.0 0.00 0.01 0.01 85 1010.3
20260509020019 61 329 1.0 2.0 0.00 0.01 0.01 85 1010.0
20260509015019 61 302 2.0 3.0 0.01 0.01 0.01 84 1009.7
20260509014019 61 322 2.0 3.0 0.01 0.01 0.01 84 1009.4
20260509013019 62 330 2.0 3.0 0.01 0.01 0.01 83 1009.2
20260509012017 63 322 1.0 3.0 0.01 0.01 0.01 81 1009.1
20260509011100 64 355 2.0 3.0 0.01 0.01 0.01 78 1009.2
20260509010020 65 336 2.0 5.0 0.00 0.00 0.00 75 1009.3
20260509005020 67 335 2.0 7.0 0.00 0.00 0.00 71 1008.9
20260509004017 68 294 1.0 4.0 0.00 0.00 0.00 68 1008.7
20260509003017 69 285 2.0 5.0 0.00 0.00 0.00 63 1008.9
20260509002020 69 291 2.0 4.0 0.00 0.00 0.00 60 1008.8
20260509001017 70 272 2.0 4.0 0.00 0.00 0.00 60 1008.7
20260509000021 70 263 3.0 6.0 0.00 0.00 0.00 59 1008.5
20260508235101 71 266 2.0 5.0 0.00 0.00 0.00 58 1008.5
20260508234018 72 275 2.0 4.0 0.00 0.00 0.00 56 1008.4
20260508233018 72 271 2.0 4.0 0.00 0.00 0.00 54 1008.4
20260508232018 73 273 2.0 4.0 0.00 0.00 0.00 53 1008.5
20260508231059 74 275 2.0 6.0 0.00 0.00 0.00 52 1008.5
20260508230018 75 277 2.0 5.0 0.00 0.00 0.00 50 1008.5
20260508225019 75 269 3.0 6.0 0.00 0.00 0.00 49 1008.5
20260508224019 76 252 3.0 6.0 0.00 0.00 0.00 48 1008.5
20260508223019 78 256 3.0 7.0 0.00 0.00 0.00 45 1008.5
20260508222019 77 275 3.0 6.0 0.00 0.00 0.00 45 1008.5
20260508221059 77 258 3.0 6.0 0.00 0.00 0.00 44 1008.6
20260508220019 78 255 3.0 7.0 0.00 0.00 0.00 43 1008.7
20260508215100 78 263 3.0 6.0 0.00 0.00 0.00 43 1008.7
20260508214019 78 274 3.0 6.0 0.00 0.00 0.00 43 1008.8
20260508213059 77 256 3.0 7.0 0.00 0.00 0.00 45 1008.9
20260508212020 76 269 3.0 6.0 0.00 0.00 0.00 46 1009.1
20260508211100 78 261 2.0 4.0 0.00 0.00 0.00 43 1009.1
20260508210017 79 270 3.0 6.0 0.00 0.00 0.00 42 1009.2
20260508205057 78 264 3.0 5.0 0.00 0.00 0.00 45 1009.4
20260508204017 77 270 3.0 7.0 0.00 0.00 0.00 45 1009.5
20260508203020 76 273 3.0 5.0 0.00 0.00 0.00 48 1009.6
20260508202021 76 258 3.0 6.0 0.00 0.00 0.00 48 1009.7
20260508201020 76 251 3.0 7.0 0.00 0.00 0.00 47 1009.7
20260508200017 77 257 3.0 6.0 0.00 0.00 0.00 45 1009.9
20260508195018 76 260 3.0 7.0 0.00 0.00 0.00 44 1009.9
20260508194018 75 264 2.0 4.0 0.00 0.00 0.00 47 1010.0
20260508193018 74 270 3.0 4.0 0.00 0.00 0.00 49 1010.1
20260508192104 73 265 3.0 6.0 0.00 0.00 0.00 50 1010.1
20260508191018 73 271 2.0 5.0 0.00 0.00 0.00 52 1010.2
20260508190058 73 275 2.0 5.0 0.00 0.00 0.00 51 1010.3
20260508185059 73 270 2.0 5.0 0.00 0.00 0.00 51 1010.3
20260508184018 73 275 3.0 5.0 0.00 0.00 0.00 51 1010.4
20260508183019 73 269 3.0 4.0 0.00 0.00 0.00 51 1010.6
20260508182019 72 272 2.0 3.0 0.00 0.00 0.00 52 1010.8
20260508181019 72 261 2.0 4.0 0.00 0.00 0.00 52 1010.9
20260508180019 71 266 2.0 4.0 0.00 0.00 0.00 53 1011.0
20260508175019 71 276 2.0 5.0 0.00 0.00 0.00 52 1011.1
20260508174019 70 286 2.0 4.0 0.00 0.00 0.00 55 1011.3
20260508173028 69 272 2.0 5.0 0.00 0.00 0.00 57 1011.5
20260508172028 68 278 2.0 3.0 0.00 0.00 0.00 58 1011.6
20260508171029 67 272 1.0 3.0 0.00 0.00 0.00 58 1011.6
20260508170028 66 282 2.0 3.0 0.00 0.00 0.00 60 1011.9
20260508165109 65 280 1.0 2.0 0.00 0.00 0.00 62 1012.2
20260508164149 65 301 1.0 2.0 0.00 0.00 0.00 62 1012.4
20260508163029 65 320 1.0 2.0 0.00 0.00 0.00 61 1012.5
20260508162149 65 306 0.0 2.0 0.00 0.00 0.00 61 1012.6
20260508161029 65 308 1.0 2.0 0.00 0.00 0.00 60 1012.7
20260508160029 65 315 1.0 3.0 0.00 0.00 0.00 59 1012.8
20260508155030 65 287 2.0 3.0 0.00 0.00 0.00 58 1012.9
20260508154029 65 294 2.0 2.0 0.00 0.00 0.00 58 1012.8
20260508153109 65 307 1.0 3.0 0.00 0.00 0.00 58 1012.6
20260508152110 65 338 1.0 2.0 0.00 0.00 0.00 58 1012.8
20260508151030 65 326 1.0 3.0 0.00 0.00 0.00 57 1013.0
20260508150030 65 288 1.0 2.0 0.00 0.00 0.00 57 1013.3
20260508145030 66 290 2.0 4.0 0.00 0.00 0.00 56 1013.4
20260508144110 65 287 1.0 2.0 0.00 0.00 0.00 60 1013.5
20260508143031 64 297 1.0 2.0 0.00 0.00 0.00 61 1013.6
20260508142111 63 317 1.0 3.0 0.00 0.00 0.00 61 1013.2
20260508141031 62 321 1.0 3.0 0.00 0.00 0.00 63 1013.3
20260508140031 62 290 1.0 2.0 0.00 0.00 0.00 66 1013.3
20260508135031 61 332 2.0 3.0 0.00 0.00 0.00 68 1013.4
20260508134031 60 332 2.0 3.0 0.00 0.00 0.00 70 1013.3
20260508133031 60 270 2.0 3.0 0.00 0.00 0.00 69 1013.3
20260508132031 59 319 3.0 3.0 0.00 0.00 0.00 70 1013.4
20260508131032 58 264 3.0 3.0 0.00 0.00 0.00 71 1013.4
20260508130032 58 256 3.0 4.0 0.00 0.00 0.00 71 1013.4
20260508125031 58 256 3.0 4.0 0.00 0.00 0.00 71 1013.4
20260508124032 58 243 3.0 4.0 0.00 0.00 0.00 71 1013.3
20260508123032 58 253 3.0 4.0 0.00 0.00 0.00 70 1013.3
20260508122017 56 260 3.0 4.0 0.00 0.00 0.00 72 1013.4
20260508121017 54 276 4.0 4.0 0.00 0.00 0.00 76 1013.5
20260508120017 53 300 4.0 4.0 0.00 0.00 0.00 78 1013.5
20260508115018 52 248 3.0 4.0 0.00 0.00 0.00 79 1013.4
20260508114018 52 271 3.0 4.0 0.00 0.00 0.00 80 1013.4
20260508113018 52 251 3.0 4.0 0.00 0.00 0.00 80 1013.3
20260508112018 52 302 3.0 4.0 0.00 0.00 0.00 80 1013.3
20260508111018 52 324 3.0 4.0 0.00 0.00 0.00 79 1013.2
20260508110018 52 286 3.0 4.0 0.00 0.00 0.00 77 1013.1
20260508105018 52 326 3.0 4.0 0.00 0.00 0.00 76 1013.2
20260508104058 52 290 3.0 4.0 0.00 0.00 0.00 74 1013.2
20260508103019 52 281 3.0 4.0 0.00 0.00 0.00 73 1013.2
20260508102019 52 272 3.0 4.0 0.00 0.00 0.00 73 1013.2
20260508101139 52 271 3.0 4.0 0.00 0.00 0.00 72 1013.3
20260508100019 52 251 3.0 4.0 0.00 0.00 0.00 72 1013.3
20260508095019 52 281 3.0 4.0 0.00 0.00 0.00 71 1013.3
20260508094019 52 249 3.0 4.0 0.00 0.00 0.00 71 1013.4
20260508093019 52 283 3.0 4.0 0.00 0.00 0.00 72 1013.4
20260508092019 52 252 3.0 4.0 0.00 0.00 0.00 73 1013.5
20260508091020 52 259 3.0 4.0 0.00 0.00 0.00 75 1013.5